When you browse on this site, cookies collect data to enhance your experience and personalize the content and advertising you see.
Visit our Privacy Policy to learn more. By continuing to use the site, you agree to this use of cookies and data.
  • In Hungary
  • List of Countries
  • For 7 days
  • Water Temperature
  • Weather Map
  • News
  • Weather Widgets
  • user-avatar
    Login

    Hourly Weather Kulikovo

    Today, 22 August, Thursday

    Time Temperature Precipitation Wind Pressure Humidity
    00:00 +14°C° 0.1 mm 2 mps 760 mmHg 91%
    01:00 +13°C° 0.1 mm 2 mps 760 mmHg 93%
    02:00 +13°C° 0 mm 2 mps 760 mmHg 95%
    03:00 +13°C° 0.5 mm 2 mps 759 mmHg 96%
    04:00 +14°C° 0.5 mm 2 mps 759 mmHg 96%
    05:00 +14°C° 0.5 mm 1 mps 759 mmHg 96%
    06:00 +14°C° 0.3 mm 2 mps 759 mmHg 93%
    07:00 +14°C° 0.3 mm 3 mps 759 mmHg 89%
    08:00 +16°C° 0 mm 3 mps 760 mmHg 86%
    09:00 +17°C° 0.2 mm 3 mps 760 mmHg 75%
    10:00 +19°C° 0.2 mm 4 mps 760 mmHg 64%
    11:00 +20°C° 0.2 mm 5 mps 760 mmHg 53%
    12:00 +20°C° 0.1 mm 5 mps 760 mmHg 52%
    13:00 +21°C° 0.1 mm 5 mps 760 mmHg 51%
    14:00 +21°C° 0.1 mm 5 mps 760 mmHg 50%
    15:00 +21°C° 0.1 mm 5 mps 760 mmHg 53%
    16:00 +20°C° 0.1 mm 5 mps 760 mmHg 56%
    17:00 +20°C° 0.1 mm 4 mps 760 mmHg 58%
    18:00 +18°C° 0 mm 4 mps 760 mmHg 66%
    19:00 +16°C° 0 mm 3 mps 761 mmHg 73%
    20:00 +14°C° 0 mm 3 mps 761 mmHg 81%
    21:00 +13°C° 0 mm 3 mps 761 mmHg 83%
    22:00 +13°C° 0 mm 3 mps 761 mmHg 86%
    23:00 +12°C° 0 mm 3 mps 761 mmHg 89%

    Tomorrow, 23 August, Friday

    Time Temperature Precipitation Wind Pressure Humidity
    00:00 +12°C° 0 mm 3 mps 762 mmHg 90%
    01:00 +12°C° 0 mm 2 mps 762 mmHg 91%
    02:00 +12°C° 0 mm 2 mps 762 mmHg 92%
    03:00 +12°C° 0 mm 2 mps 762 mmHg 92%
    04:00 +12°C° 0 mm 2 mps 762 mmHg 92%
    05:00 +10°C° 0 mm 2 mps 762 mmHg 93%
    06:00 +13°C° 0 mm 2 mps 762 mmHg 88%
    07:00 +13°C° 0 mm 3 mps 762 mmHg 84%
    08:00 +14°C° 0 mm 3 mps 762 mmHg 80%
    09:00 +16°C° 0.1 mm 3 mps 762 mmHg 78%
    10:00 +15°C° 0.1 mm 4 mps 762 mmHg 77%
    11:00 +17°C° 0.1 mm 4 mps 761 mmHg 75%
    12:00 +17°C° 0.2 mm 4 mps 761 mmHg 75%
    13:00 +17°C° 0.2 mm 5 mps 761 mmHg 74%
    14:00 +17°C° 0.2 mm 5 mps 761 mmHg 74%
    15:00 +17°C° 0.1 mm 5 mps 760 mmHg 71%
    16:00 +19°C° 0.1 mm 5 mps 760 mmHg 68%
    17:00 +19°C° 0.1 mm 5 mps 759 mmHg 65%
    18:00 +17°C° 0.6 mm 5 mps 759 mmHg 75%
    19:00 +16°C° 0.6 mm 5 mps 758 mmHg 84%
    20:00 +14°C° 0.6 mm 4 mps 758 mmHg 94%
    21:00 +14°C° 1.2 mm 4 mps 757 mmHg 94%
    22:00 +14°C° 1.2 mm 4 mps 757 mmHg 95%
    23:00 +14°C° 1.2 mm 4 mps 757 mmHg 95%

    Day after tomorrow, 24 August, Saturday

    Time Temperature Precipitation Wind Pressure Humidity
    00:00 +14°C° 0 mm 3 mps 757 mmHg 96%
    01:00 +13°C° 0 mm 3 mps 756 mmHg 97%
    02:00 +14°C° 0 mm 2 mps 756 mmHg 98%
    03:00 +14°C° 0.4 mm 2 mps 756 mmHg 98%
    04:00 +14°C° 0.4 mm 2 mps 756 mmHg 98%
    05:00 +14°C° 0.4 mm 2 mps 756 mmHg 98%
    06:00 +13°C° 0 mm 3 mps 756 mmHg 94%
    07:00 +14°C° 0 mm 3 mps 756 mmHg 90%
    08:00 +14°C° 0 mm 4 mps 756 mmHg 86%
    09:00 +15°C° 0.1 mm 4 mps 757 mmHg 79%
    10:00 +16°C° 0.1 mm 5 mps 757 mmHg 73%
    11:00 +17°C° 0.1 mm 5 mps 757 mmHg 66%
    12:00 +19°C° 0.1 mm 5 mps 758 mmHg 64%
    13:00 +19°C° 0.1 mm 5 mps 758 mmHg 62%
    14:00 +19°C° 0.1 mm 5 mps 759 mmHg 60%
    15:00 +19°C° 0 mm 5 mps 759 mmHg 61%
    16:00 +19°C° 0 mm 4 mps 759 mmHg 62%
    17:00 +18°C° 0 mm 4 mps 760 mmHg 63%
    18:00 +17°C° 0 mm 3 mps 760 mmHg 70%
    19:00 +14°C° 0 mm 3 mps 761 mmHg 77%
    20:00 +14°C° 0 mm 2 mps 761 mmHg 84%
    21:00 +14°C° 0 mm 2 mps 761 mmHg 86%
    22:00 +13°C° 0 mm 2 mps 762 mmHg 89%
    23:00 +12°C° 0 mm 2 mps 762 mmHg 92%

    25 August, Sunday

    Time Temperature Precipitation Wind Pressure Humidity
    00:00 +12°C° 0 mm 2 mps 763 mmHg 93%
    01:00 +12°C° 0 mm 2 mps 763 mmHg 95%
    02:00 +11°C° 0 mm 1 mps 763 mmHg 97%
    03:00 +11°C° 0 mm 1 mps 764 mmHg 97%
    04:00 +11°C° 0 mm 1 mps 764 mmHg 97%
    05:00 +11°C° 0 mm 1 mps 765 mmHg 97%
    06:00 +12°C° 0 mm 1 mps 765 mmHg 89%
    07:00 +14°C° 0 mm 1 mps 765 mmHg 81%
    08:00 +16°C° 0 mm 1 mps 766 mmHg 74%
    09:00 +18°C° 0 mm 1 mps 766 mmHg 66%
    10:00 +20°C° 0 mm 1 mps 766 mmHg 59%
    11:00 +21°C° 0 mm 1 mps 767 mmHg 52%
    12:00 +22°C° 0 mm 1 mps 767 mmHg 49%
    13:00 +22°C° 0 mm 1 mps 766 mmHg 47%
    14:00 +22°C° 0 mm 1 mps 766 mmHg 45%
    15:00 +21°C° 0 mm 2 mps 766 mmHg 48%
    16:00 +20°C° 0 mm 2 mps 766 mmHg 51%
    17:00 +19°C° 0 mm 2 mps 766 mmHg 55%
    18:00 +18°C° 0 mm 2 mps 766 mmHg 62%
    19:00 +16°C° 0 mm 2 mps 766 mmHg 70%
    20:00 +14°C° 0 mm 2 mps 766 mmHg 78%
    21:00 +14°C° 0 mm 2 mps 766 mmHg 83%
    22:00 +13°C° 0 mm 2 mps 766 mmHg 87%
    23:00 +12°C° 0 mm 2 mps 766 mmHg 92%

    26 August, Monday

    Time Temperature Precipitation Wind Pressure Humidity
    00:00 +12°C° 0 mm 2 mps 766 mmHg 93%
    01:00 +12°C° 0 mm 2 mps 765 mmHg 94%
    02:00 +12°C° 0 mm 2 mps 765 mmHg 95%
    03:00 +11°C° 0 mm 3 mps 765 mmHg 94%
    04:00 +11°C° 0 mm 3 mps 764 mmHg 93%
    05:00 +11°C° 0 mm 3 mps 764 mmHg 93%
    06:00 +13°C° 0 mm 3 mps 764 mmHg 86%
    07:00 +14°C° 0 mm 3 mps 764 mmHg 79%
    08:00 +17°C° 0 mm 4 mps 763 mmHg 72%
    09:00 +17°C° 0.2 mm 4 mps 763 mmHg 70%
    10:00 +18°C° 0.2 mm 3 mps 763 mmHg 68%
    11:00 +18°C° 0.2 mm 3 mps 763 mmHg 66%
    12:00 +20°C° 0 mm 4 mps 763 mmHg 62%
    13:00 +21°C° 0 mm 4 mps 762 mmHg 58%
    14:00 +22°C° 0 mm 4 mps 762 mmHg 54%
    15:00 +22°C° 0 mm 4 mps 762 mmHg 57%
    16:00 +21°C° 0 mm 3 mps 761 mmHg 61%
    17:00 +21°C° 0 mm 3 mps 761 mmHg 64%
    18:00 +20°C° 0.1 mm 3 mps 761 mmHg 71%
    19:00 +18°C° 0.1 mm 3 mps 761 mmHg 77%
    20:00 +17°C° 0.1 mm 3 mps 760 mmHg 84%
    21:00 +17°C° 0 mm 3 mps 760 mmHg 86%
    22:00 +17°C° 0 mm 3 mps 760 mmHg 87%
    23:00 +16°C° 0 mm 3 mps 760 mmHg 89%

    27 August, Tuesday

    Time Temperature Precipitation Wind Pressure Humidity
    00:00 +16°C° 0 mm 3 mps 760 mmHg 91%
    01:00 +14°C° 0 mm 3 mps 760 mmHg 93%
    02:00 +15°C° 0 mm 2 mps 760 mmHg 95%
    03:00 +15°C° 0 mm 2 mps 760 mmHg 93%
    04:00 +15°C° 0 mm 2 mps 760 mmHg 91%
    05:00 +14°C° 0 mm 3 mps 760 mmHg 90%
    06:00 +16°C° 0 mm 3 mps 760 mmHg 84%
    07:00 +16°C° 0 mm 3 mps 760 mmHg 78%
    08:00 +17°C° 0 mm 3 mps 760 mmHg 71%
    09:00 +18°C° 0 mm 3 mps 760 mmHg 64%
    10:00 +19°C° 0 mm 3 mps 761 mmHg 57%
    11:00 +20°C° 0 mm 3 mps 761 mmHg 50%
    12:00 +20°C° 0 mm 4 mps 761 mmHg 47%
    13:00 +21°C° 0 mm 4 mps 761 mmHg 45%
    14:00 +21°C° 0 mm 4 mps 761 mmHg 43%
    15:00 +21°C° 0 mm 4 mps 761 mmHg 43%
    16:00 +20°C° 0 mm 4 mps 762 mmHg 44%
    17:00 +20°C° 0 mm 4 mps 762 mmHg 45%
    18:00 +18°C° 0 mm 4 mps 762 mmHg 53%
    19:00 +16°C° 0 mm 3 mps 763 mmHg 62%
    20:00 +13°C° 0 mm 3 mps 763 mmHg 70%
    21:00 +12°C° 0 mm 3 mps 764 mmHg 75%
    22:00 +11°C° 0 mm 3 mps 764 mmHg 79%
    23:00 +10°C° 0 mm 3 mps 765 mmHg 84%
    Show more